TimeAKDT,TemperatureF,Dew PointF,Humidity,Sea Level PressureIn,VisibilityMPH,Wind Direction,Wind SpeedMPH,Gust SpeedMPH,PrecipitationIn,Events,Conditions,WindDirDegrees,DateUTC
12:53 AM,66.0,59.0,78,30.18,10.0,South,8.1,-,N/A,,Mostly Cloudy,190,2013-07-31 08:53:00
1:53 AM,64.0,57.9,80,30.19,10.0,SSW,4.6,-,N/A,,Clear,200,2013-07-31 09:53:00
2:53 AM,62.1,57.0,84,30.20,10.0,SSW,5.8,-,N/A,,Clear,200,2013-07-31 10:53:00
3:53 AM,59.0,55.9,90,30.21,10.0,Calm,Calm,-,N/A,,Partly Cloudy,0,2013-07-31 11:53:00
4:53 AM,57.9,55.9,93,30.21,10.0,Calm,Calm,-,N/A,,Clear,0,2013-07-31 12:53:00
5:53 AM,55.9,55.0,97,30.21,10.0,Calm,Calm,-,N/A,,Mostly Cloudy,0,2013-07-31 13:53:00
6:53 AM,57.9,55.0,90,30.22,10.0,Calm,Calm,-,N/A,,Mostly Cloudy,0,2013-07-31 14:53:00
7:53 AM,61.0,55.9,83,30.22,10.0,Calm,Calm,-,N/A,,Clear,0,2013-07-31 15:53:00
8:53 AM,62.1,54.0,75,30.22,10.0,Calm,Calm,-,N/A,,Scattered Clouds,0,2013-07-31 16:53:00
9:02 AM,62.6,53.6,72,30.21,10.0,Calm,Calm,-,N/A,,Mostly Cloudy,0,2013-07-31 17:02:00
9:17 AM,62.6,53.6,72,30.21,10.0,Calm,Calm,-,N/A,,Scattered Clouds,0,2013-07-31 17:17:00
9:25 AM,62.6,53.6,72,30.21,10.0,Calm,Calm,-,N/A,,Mostly Cloudy,0,2013-07-31 17:25:00
9:33 AM,62.6,53.6,72,30.21,10.0,Variable,3.5,-,N/A,,Partly Cloudy,0,2013-07-31 17:33:00
9:53 AM,64.0,54.0,70,30.21,10.0,South,6.9,-,N/A,,Clear,180,2013-07-31 17:53:00
10:53 AM,66.0,54.0,65,30.21,10.0,SW,3.5,-,N/A,,Clear,220,2013-07-31 18:53:00
11:53 AM,66.9,55.0,66,30.20,10.0,Variable,3.5,-,N/A,,Clear,0,2013-07-31 19:53:00
12:53 PM,70.0,55.9,61,30.19,10.0,SW,6.9,-,N/A,,Clear,220,2013-07-31 20:53:00
1:53 PM,71.1,55.9,59,30.18,10.0,SW,5.8,-,N/A,,Clear,220,2013-07-31 21:53:00
2:53 PM,73.0,55.9,55,30.16,10.0,SSW,6.9,-,N/A,,Clear,210,2013-07-31 22:53:00
3:53 PM,73.9,55.9,53,30.15,10.0,SSW,6.9,-,N/A,,Clear,200,2013-07-31 23:53:00
4:53 PM,75.0,55.9,51,30.13,10.0,SSW,6.9,-,N/A,,Clear,200,2013-08-01 00:53:00
5:53 PM,75.0,57.0,53,30.12,10.0,SSW,8.1,-,N/A,,Clear,200,2013-08-01 01:53:00
6:53 PM,73.9,55.9,53,30.10,10.0,SSW,6.9,-,N/A,,Clear,200,2013-08-01 02:53:00
7:53 PM,73.9,55.9,53,30.09,10.0,South,6.9,-,N/A,,Clear,190,2013-08-01 03:53:00
8:53 PM,72.0,55.9,57,30.09,10.0,SSW,6.9,-,N/A,,Clear,210,2013-08-01 04:53:00
9:53 PM,69.1,55.9,63,30.10,10.0,SSW,3.5,-,N/A,,Clear,200,2013-08-01 05:53:00
10:53 PM,66.9,53.1,61,30.11,10.0,South,6.9,-,N/A,,Clear,170,2013-08-01 06:53:00
11:53 PM,64.0,53.1,67,30.12,10.0,SSE,3.5,-,N/A,,Clear,160,2013-08-01 07:53:00